375103 (2007 TD71) |
Classification: Apollo [NEO, PHA] SPK-ID: 2375103 |
[ hide orbit diagram ]
For accurate long-term ephemerides, please instead use our Horizons system.This orbit viewer was implemented using two-body methods, and hence should not be used for determining accurate long-term trajectories (over several years or decades) or planetary encounter circumstances.
Orbital Elements at Epoch 2459000.5 (2020-May-31.0) TDB
Reference: JPL 53 (heliocentric ecliptic J2000)
Element | Value | Uncertainty (1-sigma) | Units |
e | .2797894276730216 | 1.5608e-07 | |
a | 1.286196471224092 | 1.5417e-08 | au |
q | .9263322966652433 | 2.0844e-07 | au |
i | 49.75383590530041 | 2.0378e-05 | deg |
node | 49.58586354598155 | 1.1263e-05 | deg |
peri | 220.7495087079502 | 3.7031e-05 | deg |
M | 307.0866292569716 | 7.2038e-05 | deg |
tp | 2459078.810919798886 (2020-Aug-17.31091980) | 0.00010793 | TDB |
period | 532.7940883696849 1.46 | 9.5796e-06 2.623e-08 | d yr |
n | .6756831726522651 | 1.2149e-08 | deg/d |
Q | 1.64606064578294 | 1.9731e-08 | au |
|
| | Orbit Determination Parameters
Additional Information
|
[ show covariance matrix ]
Physical Parameter Table
Parameter |
Symbol |
Value |
Units |
Sigma |
Reference |
Notes |
absolute magnitude |
H |
18.4 |
|
n/a |
MPO260777 |
|
|
375103 (2007 TD71) Discovered 2007-Oct-13 by Siding Spring Survey at Siding Spring |
Reference: | Last Updated: 2013-10-21 |
|
[ show close-approach data ]
|